{"data":{"norad_id":58973,"intl_designator":"2024-031J","name":"STARLINK-31365","alt_names":[],"object_type":"PAYLOAD","status":"ACTIVE","operator":null,"country":"US","launch_date":"2024-02-15","launch_site_code":"AFWTR","launch_vehicle":null,"mission":null,"orbit_class":"UNKNOWN","rcs_meters":null,"size_class":null,"mass_kg":null,"dimensions":null,"purposes":["comms"],"wikipedia_slug":null,"has_3d_model":false,"image_url":null,"decayed_at":null,"tle_current":{"epoch":"2026-05-24T15:41:08.035008Z","epoch_age_seconds":119185,"freshness":"FRESH","line1":"1 58973U 24031J   26144.65356522 -.00001674  00000+0 -44437-4 0  9998","line2":"2 58973  53.1611 303.8445 0001154  73.2906 286.8222 15.30179980128167","mean_motion":15.3017998,"eccentricity":0.0001154,"inclination_deg":53.1611,"raan_deg":303.8445,"arg_perigee_deg":73.2906,"mean_anomaly_deg":286.8222,"bstar":-4.4437e-5,"rev_number":12816,"period_min":94.106576926983,"perigee_km":474.48396245538,"apogee_km":476.06572990947,"semimajor_km":6853.4118461824,"source":"CELESTRAK","updated_at":"2026-05-25T13:38:18.794809Z"}}}